Weather Roundup
Issued by NWS

Home | Current Version | Previous Version | Graphics & Text | Print | Product List | Glossary Off
Versions: 1 2 3 4 5 6 7 8 9 10 11 12 13 14 15 16 17 18 19 20 21 22 23 24 25 26 27 28 29 30 31 32 33 34 35 36 37 38 39 40 41 42 43 44 45 46 47 48 49 50

000
NZUS93 KARX 211510
HRRWXR

CURRENT HOURLY OBSERVATIONS ACROSS
MUCH OF THE UPPER MISSISSIPPI VALLEY
NATIONAL WEATHER SERVICE LA CROSSE WI
900 AM CST WED FEB 21 2018


...SOUTHEAST MINNESOTA...


CITY           SKY/WX    TMP DP  RH WIND       PRES   REMARKS
ROCHESTER      FAIR       7   3  84 SW3       30.56R
ROCHESTER/MAYO FAIR      10   3  73 CALM      30.58R
WINONA         FAIR      12   5  73 W3        30.60F
AUSTIN         FAIR       9   1  72 CALM      30.56R
ALBERT LEA     FAIR       9   0  66 CALM      30.56S
DODGE CENTER   FAIR       3   0  85 W5        30.55R WCI  -6
PRESTON        FAIR      10   4  78 NW5       30.56F WCI   1
OWATONNA       FAIR       3   0  85 S3        30.58R
FARIBAULT      FAIR       5   0  78 S5        30.58R WCI  -4
$$

...ELSEWHERE IN MINNESOTA...


CITY           SKY/WX    TMP DP  RH WIND       PRES   REMARKS
MINNEAPOLIS    FAIR       5   0  79 SW8       30.59R WCI  -8
INTNL FALLS    FAIR      -1  -5  82 SW6       30.36R WCI -13
DULUTH         FAIR       3  -2  79 W10       30.39S WCI -12
RED WING       FAIR       7  -2  66 W6        30.60R WCI  -3
REDWOOD FALLS  CLOUDY     3  -6  66 W7        30.57R WCI  -9
MANKATO        FAIR       7  -1  70 SW8       30.61R WCI  -6
WORTHINGTON    CLOUDY     5  -4  66 S7        30.56R WCI  -7
FAIRMONT       CLOUDY     7  -1  70 W7        30.59R WCI  -5
$$

...SOUTHWEST WISCONSIN...


CITY           SKY/WX    TMP DP  RH WIND       PRES   REMARKS
LA CROSSE      FAIR      13   6  74 CALM      30.62R
PRAIRIE DU CHI FAIR      14   4  62 NW9       30.62R WCI   2
BOSCOBEL       FAIR      16   6  65 NW8       30.61R WCI   5
LONE ROCK      FAIR      17  10  74 NW8       30.59R WCI   7
PLATTEVILLE    FAIR      17  13  83 NW9       30.56R WCI   5
FORT MC COY    FAIR      12   6  78 W3        30.61R
CAMP DOUGLAS   PTSUNNY   12   5  73 NW7       30.58R WCI   2
MAUSTON-NEW LI FAIR      12   5  73 NW10      30.58R WCI  -1
VIROQUA        FAIR      11   6  83 N6        30.55R WCI   1
WIS DELLS      FAIR      16   9  75 NW9       30.56R WCI   4
$$

...ELSEWHERE IN WISCONSIN...


CITY           SKY/WX    TMP DP  RH WIND       PRES   REMARKS
MILWAUKEE      PTSUNNY   25  14  63 N12       30.51R WCI  14
MADISON        PTSUNNY   19  11  70 N13       30.55R WCI   6
GREEN BAY      FAIR      19   9  65 W15       30.53R WCI   5
EAU CLAIRE     FAIR       5   0  79 W7        30.56R WCI  -7
BLACK RVR FLS  FAIR      13   5  70 W5        30.58R WCI   5
MEDFORD        FAIR       3  -1  82 W3        30.48S
WAUSAU         FAIR       7   2  80 W9        30.50R WCI  -7
WIS RAPIDS     FAIR      11   3  70 NW5       30.56R WCI   3
MARSHFIELD     FAIR       6   1  80 W5        30.51R WCI  -3
RICE LAKE      FAIR       2  -1  86 CALM      30.54R
$$

...NORTHEAST IOWA...


CITY           SKY/WX    TMP DP  RH WIND       PRES   REMARKS
WATERLOO       FAIR      12   6  77 N9        30.62R WCI   0
DUBUQUE        FAIR      16   8  71 N9        30.56R WCI   4
DECORAH        FAIR      10   7  85 NW6       30.57R WCI   1
MASON CITY     CLOUDY    10   3  73 N5        30.60R WCI   2
CHARLES CITY   FAIR      12   9  85 N7        30.60R WCI   2
OELWEIN        FAIR      12   7  79 N9        30.61R WCI   0
$$

...ELSEWHERE IN IOWA...


CITY           SKY/WX    TMP DP  RH WIND       PRES   REMARKS
DES MOINES     CLOUDY    14   6  70 N9        30.63R WCI   2
IOWA CITY      FAIR      20   8  60 N8        30.62R WCI  10
FORT DODGE     CLOUDY    14   6  70 CALM      30.62R
MARSHALLTOWN   MOSUNNY   14   7  73 N10       30.62R WCI   1
CEDAR RAPIDS   FAIR      17   8  67 N14       30.59R WCI   3
$$

...NORTHERN ILLINOIS...


CITY           SKY/WX    TMP DP  RH WIND       PRES   REMARKS
CHICAGO-OHARE  CLOUDY    28  18  66 NW12      30.49R WCI  18
CHICAGO-MIDWAY CLOUDY    30  21  69 N9        30.50R WCI  22
MOLINE         FAIR      24  16  71 NW12      30.57R WCI  13
ROCKFORD       CLOUDY    25  17  72 N10       30.55R WCI  15
PEORIA         PTSUNNY   25  21  85 NW8       30.55R WCI  16
$$

NOTE: "FAIR" INDICATES FEW OR NO CLOUDS BELOW 12,000 FEET WITH NO
SIGNIFICANT WEATHER AND/OR OBSTRUCTIONS TO VISIBILITY. WIND
SPEEDS ARE IN MILES-PER-HOUR.




USA.gov is the U.S. government's official web portal to all federal, state and local government web resources and services.